This is the latest recevied weather packets stored in our database for station/object N4QD-13. If no packets are shown the sender has not sent any weather packets the latest 10 day(s).
| Time | Temp. | Humidity | Pressure | Rain* | Wind** | Luminosity | Snow |
|---|---|---|---|---|---|---|---|
| 1778008703 | 27.78° C | 32% | 1011.5 hPa | 0 mm | - | 650 W/m² | - |
| 1778008401 | 27.22° C | 33% | 1011.4 hPa | 0 mm | - | 719 W/m² | - |
| 1778008098 | 27.78° C | 33% | 1011.4 hPa | 0 mm | - | 798 W/m² | - |
| 1778007793 | 27.78° C | 33% | 1011.6 hPa | 0 mm | - | 795 W/m² | - |
| 1778007489 | 27.22° C | 33% | 1011.6 hPa | 0 mm | - | 763 W/m² | - |
| 1778007186 | 26.67° C | 33% | 1011.8 hPa | 0 mm | - | 749 W/m² | - |
| 1778006882 | 26.67° C | 32% | 1011.7 hPa | 0 mm | - | 741 W/m² | - |
| 1778006579 | 27.22° C | 33% | 1012 hPa | 0 mm | - | 756 W/m² | - |
| 1778006276 | 27.78° C | 34% | 1012 hPa | 0 mm | - | 762 W/m² | - |
| 1778005973 | 27.22° C | 34% | 1012.3 hPa | 0 mm | - | 769 W/m² | - |
| 1778005670 | 26.67° C | 38% | 1012.2 hPa | 0 mm | - | 719 W/m² | - |
| 1778005366 | 27.22° C | 38% | 1012.5 hPa | 0 mm | - | 688 W/m² | - |
| 1778005063 | 26.67° C | 38% | 1012.4 hPa | 0 mm | - | 732 W/m² | - |
| 1778004761 | 27.22° C | 38% | 1012.5 hPa | 0 mm | - | 681 W/m² | - |
| 1778004457 | 26.67° C | 37% | 1012.6 hPa | 0 mm | - | 698 W/m² | - |
| 1778004154 | 26.67° C | 37% | 1012.6 hPa | 0 mm | - | 720 W/m² | - |
| 1778003850 | 26.67° C | 38% | 1012.9 hPa | 0 mm | - | 706 W/m² | - |
| 1778003546 | 26.67° C | 39% | 1013 hPa | 0 mm | - | 728 W/m² | - |
| 1778003243 | 26.11° C | 37% | 1012.9 hPa | 0 mm | - | 750 W/m² | - |
| 1778002940 | 26.11° C | 39% | 1012.9 hPa | 0 mm | - | 726 W/m² | - |
| 1778002636 | 26.11° C | 38% | 1013 hPa | 0 mm | - | 740 W/m² | - |
| 1778002333 | 26.11° C | 42% | 1013.3 hPa | 0 mm | - | 693 W/m² | - |
| 1778002030 | 26.11° C | 39% | 1012.9 hPa | 0 mm | - | 704 W/m² | - |
| 1778001727 | 26.11° C | 40% | 1013 hPa | 0 mm | - | 694 W/m² | - |
| 1778001427 | 26.11° C | 41% | 1013.1 hPa | 0 mm | - | 704 W/m² | - |
* Rain latest hour (hover to see other rain measurements)
** Current wind speed in m/s (hover to see current wind gust speed)